sat.trackr.live / text

‹ back to catalog

STARLINK-32454

NORAD 62142 · 2024-224D

PAYLOAD ACTIVE UNKNOWN

§ Identity

Operator
Country
US
Launch date
2024-11-30
Launch site
AFETR
Launch vehicle
Mass (kg)
RCS (m²)

Purposes: comms

External: N2YO · Heavens-Above · Gunter

§ Orbital elements

Epoch: 2026-09-21T00:05:01.593024Z

Period
94.27 min
Inclination
43.0006°
Eccentricity
0.0001620
Mean motion
15.27596232 rev/d
Perigee alt
481.9 km
Apogee alt
484.1 km
Semi-major
6,861.1 km
B*
6.8223e-4
RAAN
142.6048°
Arg perigee
267.6898°
Mean anomaly
92.3768°
Rev number
10,226

§ Raw data

STARLINK-324541 62142U 24224D   26264.00349066  .00018568  00000+0  68223-3 0  99982 62142  43.0006 142.6048 0001620 267.6898  92.3768 15.27596232102268

JSON: /api/v1/satellites/62142 · /tle

For live sub-satellite position, see the globe view (requires WebGL).

§ Visibility from observer

Set your observer location to see the next 7 days of passes ≥ 10°. The values pass through the URL so the page stays shareable.

No JS? Fill the form by hand. The geolocation button needs JavaScript.